This is the latest recevied weather packets stored in our database for station/object R1CBW-13. If no packets are shown the sender has not sent any weather packets the latest 10 day(s).
| Time | Temp. | Humidity | Pressure | Rain* | Wind** | Luminosity | Snow |
|---|---|---|---|---|---|---|---|
| 1778318852 | 11.67° C | 30% | 1028 hPa | 0 mm | - | - | - |
| 1778318792 | 11.11° C | 30% | 1028.1 hPa | 0 mm | - | - | - |
| 1778318732 | 11.67° C | 31% | 1028.2 hPa | 0 mm | - | - | - |
| 1778318672 | 11.11° C | 30% | 1028 hPa | 0 mm | - | - | - |
| 1778318612 | 11.11° C | 31% | 1028 hPa | 0 mm | - | - | - |
| 1778318492 | 11.67° C | 29% | 1028 hPa | 0 mm | - | - | - |
| 1778318432 | 11.67° C | 30% | 1028.1 hPa | 0 mm | - | - | - |
| 1778318371 | 12.22° C | 29% | 1028 hPa | 0 mm | - | - | - |
| 1778318312 | 12.22° C | 29% | 1028 hPa | 0 mm | - | - | - |
| 1778318252 | 11.11° C | 30% | 1027.9 hPa | 0 mm | - | - | - |
| 1778318192 | 11.11° C | 29% | 1027.9 hPa | 0 mm | - | - | - |
| 1778318132 | 11.11° C | 28% | 1028 hPa | 0 mm | - | - | - |
| 1778318072 | 12.22° C | 29% | 1028 hPa | 0 mm | - | - | - |
| 1778318011 | 12.22° C | 29% | 1028 hPa | 0 mm | - | - | - |
| 1778317952 | 11.11° C | 30% | 1028.1 hPa | 0 mm | - | - | - |
| 1778317891 | 11.11° C | 30% | 1028.1 hPa | 0 mm | - | - | - |
| 1778317831 | 11.67° C | 29% | 1028 hPa | 0 mm | - | - | - |
| 1778317771 | 11.11° C | 30% | 1028.1 hPa | 0 mm | - | - | - |
| 1778317711 | 11.67° C | 30% | 1028.1 hPa | 0 mm | - | - | - |
| 1778317651 | 11.11° C | 30% | 1028.2 hPa | 0 mm | - | - | - |
| 1778317591 | 12.22° C | 29% | 1028.1 hPa | 0 mm | - | - | - |
| 1778317531 | 11.67° C | 29% | 1028 hPa | 0 mm | - | - | - |
| 1778317471 | 11.67° C | 29% | 1028 hPa | 0 mm | - | - | - |
| 1778317411 | 12.78° C | 28% | 1027.9 hPa | 0 mm | - | - | - |
| 1778317351 | 12.22° C | 29% | 1028.1 hPa | 0 mm | - | - | - |
* Rain latest hour (hover to see other rain measurements)
** Current wind speed in m/s (hover to see current wind gust speed)